User: anonymous   Login
Location: Caltech
(34.1382°N, 118.1253°W)
Time: 03:15:38
(UTC-07:00)
Language:

Iridium 49 - Orbit

View from above orbital plane
View from above orbital plane
View from above satellite
View from above satellite

Ground track
Ground track

The orbit data is extracted from the following two-line orbital elements,

1 25108U 97082E   15148.26691407  .00000232  00000-0  75792-4 0  9997
2 25108 086.3989 209.2915 0002250 093.2457 332.6331 14.34217298912743
Epoch (UTC): 28 May 2015 06:24:21
Eccentricity: 0.0002250
inclination: 86.3989°
perigee height: 776 km
apogee height: 779 km
right ascension of ascending node: 209.2915°
argument of perigee: 93.2457°
revolutions per day: 14.34217298
mean anomaly at epoch: 332.6331°
orbit number at epoch: 91274

The dashed part of the orbit path shows where the satellite is in the earth's shadow,  

DLR